TimeCST,TemperatureF,Dew PointF,Humidity,Sea Level PressureIn,VisibilityMPH,Wind Direction,Wind SpeedMPH,Gust SpeedMPH,PrecipitationIn,Events,Conditions,WindDirDegrees,DateUTC
12:05 AM,46.4,46.4,100,29.82,1.2,NNE,3.5,-,N/A,,Overcast,30,2012-12-28 06:05:00
12:11 AM,46.4,46.4,100,29.82,1.0,NNE,4.6,-,N/A,,Mist,20,2012-12-28 06:11:00
12:16 AM,46.4,46.4,100,29.82,1.0,NNE,3.5,-,N/A,,Mist,20,2012-12-28 06:16:00
12:21 AM,46.4,46.4,100,29.82,1.0,NNE,3.5,-,N/A,,Mist,20,2012-12-28 06:21:00
12:24 AM,46.4,46.4,100,29.82,1.2,NE,4.6,-,N/A,,Overcast,40,2012-12-28 06:24:00
12:42 AM,46.4,46.4,100,29.81,1.2,NE,3.5,-,N/A,,Overcast,40,2012-12-28 06:42:00
12:49 AM,46.4,46.4,100,29.81,1.0,NNE,3.5,-,N/A,,Mist,30,2012-12-28 06:49:00
12:50 AM,46.4,46.4,100,29.81,1.0,NNE,3.5,-,N/A,,Mist,30,2012-12-28 06:50:00
12:55 AM,45.7,45.7,100,29.81,1.0,Calm,Calm,-,N/A,,Mist,0,2012-12-28 06:55:00
1:01 AM,46.4,46.4,100,29.81,1.0,Calm,Calm,-,N/A,,Mist,0,2012-12-28 07:01:00
1:04 AM,46.4,46.4,100,29.81,1.2,Calm,Calm,-,N/A,,Overcast,0,2012-12-28 07:04:00
1:10 AM,46.4,46.4,100,29.81,1.5,Calm,Calm,-,N/A,,Overcast,0,2012-12-28 07:10:00
1:27 AM,46.4,46.4,100,29.81,1.5,Calm,Calm,-,N/A,,Overcast,0,2012-12-28 07:27:00
1:39 AM,46.4,46.4,100,29.81,1.5,Calm,Calm,-,N/A,,Overcast,0,2012-12-28 07:39:00
1:41 AM,46.4,46.4,100,29.81,1.8,Calm,Calm,-,N/A,,Overcast,0,2012-12-28 07:41:00
1:50 AM,46.4,46.4,100,29.81,2.0,Calm,Calm,-,N/A,,Overcast,0,2012-12-28 07:50:00
1:55 AM,46.2,46.2,100,29.81,2.5,Calm,Calm,-,N/A,,Overcast,0,2012-12-28 07:55:00
2:02 AM,46.4,46.4,100,29.81,2.5,Calm,Calm,-,N/A,,Overcast,0,2012-12-28 08:02:00
2:14 AM,46.4,46.4,100,29.81,2.5,North,3.5,-,N/A,,Overcast,10,2012-12-28 08:14:00
2:18 AM,46.4,46.4,100,29.81,3.0,North,3.5,-,N/A,,Overcast,10,2012-12-28 08:18:00
2:26 AM,46.4,46.4,100,29.81,3.0,North,4.6,-,N/A,,Overcast,360,2012-12-28 08:26:00
2:43 AM,46.4,46.4,100,29.80,4.0,NW,4.6,-,N/A,,Mostly Cloudy,320,2012-12-28 08:43:00
2:54 AM,46.4,46.4,100,29.81,4.0,North,3.5,-,N/A,,Mostly Cloudy,350,2012-12-28 08:54:00
2:55 AM,46.8,46.8,100,29.81,4.0,North,3.5,-,N/A,,Mostly Cloudy,350,2012-12-28 08:55:00
3:11 AM,46.4,46.4,100,29.81,4.0,Calm,Calm,-,N/A,,Mostly Cloudy,0,2012-12-28 09:11:00
3:22 AM,46.4,46.4,100,29.81,5.0,Calm,Calm,-,N/A,,Overcast,0,2012-12-28 09:22:00
3:28 AM,46.4,46.4,100,29.81,5.0,Calm,Calm,-,N/A,,Mostly Cloudy,0,2012-12-28 09:28:00
3:55 AM,47.5,47.5,100,29.80,5.0,Calm,Calm,-,N/A,,Mostly Cloudy,0,2012-12-28 09:55:00
3:57 AM,48.2,48.2,100,29.80,5.0,Calm,Calm,-,N/A,,Scattered Clouds,0,2012-12-28 09:57:00
4:23 AM,48.2,48.2,100,29.81,7.0,North,8.1,-,N/A,,Mostly Cloudy,350,2012-12-28 10:23:00
4:25 AM,48.2,48.2,100,29.81,7.0,NNW,9.2,-,N/A,,Mostly Cloudy,340,2012-12-28 10:25:00
4:40 AM,48.2,48.2,100,29.81,6.0,North,4.6,-,N/A,,Overcast,350,2012-12-28 10:40:00
4:53 AM,48.2,48.2,100,29.82,7.0,NNW,3.5,-,N/A,,Overcast,340,2012-12-28 10:53:00
4:55 AM,48.6,48.6,100,29.82,7.0,NNW,4.6,-,N/A,,Overcast,340,2012-12-28 10:55:00
5:07 AM,48.2,48.2,100,29.83,7.0,NNW,4.6,-,N/A,,Overcast,340,2012-12-28 11:07:00
5:26 AM,50.0,50.0,100,29.83,9.0,NNW,8.1,-,N/A,,Mostly Cloudy,340,2012-12-28 11:26:00
5:46 AM,50.0,50.0,100,29.84,10.0,NNW,8.1,-,N/A,,Scattered Clouds,340,2012-12-28 11:46:00
5:48 AM,50.0,50.0,100,29.84,10.0,NNW,6.9,-,N/A,,Mostly Cloudy,340,2012-12-28 11:48:00
5:50 AM,50.0,50.0,100,29.85,10.0,NNW,5.8,-,N/A,,Mostly Cloudy,340,2012-12-28 11:50:00
5:55 AM,50.4,50.2,99,29.84,10.0,NNW,6.9,-,N/A,,Mostly Cloudy,330,2012-12-28 11:55:00
6:00 AM,50.0,50.0,100,29.85,10.0,NNW,9.2,-,N/A,,Mostly Cloudy,330,2012-12-28 12:00:00
6:01 AM,50.0,50.0,100,29.85,10.0,NNW,9.2,-,N/A,,Mostly Cloudy,330,2012-12-28 12:01:00
6:02 AM,50.0,50.0,100,29.85,10.0,NNW,11.5,-,N/A,,Mostly Cloudy,330,2012-12-28 12:02:00
6:08 AM,50.0,50.0,100,29.86,10.0,NNW,11.5,-,N/A,,Mostly Cloudy,330,2012-12-28 12:08:00
6:16 AM,50.0,50.0,100,29.86,10.0,NNW,13.8,-,N/A,,Overcast,330,2012-12-28 12:16:00
6:21 AM,50.0,50.0,100,29.87,10.0,NNW,12.7,-,N/A,,Overcast,330,2012-12-28 12:21:00
6:44 AM,50.0,50.0,100,29.88,10.0,NW,9.2,-,N/A,,Scattered Clouds,320,2012-12-28 12:44:00
6:55 AM,48.4,48.2,99,29.88,10.0,NNW,6.9,-,N/A,,Scattered Clouds,330,2012-12-28 12:55:00
7:55 AM,45.5,45.3,99,29.91,6.0,Calm,Calm,-,N/A,,Scattered Clouds,0,2012-12-28 13:55:00
8:55 AM,49.6,49.3,99,29.92,7.0,Calm,Calm,-,N/A,,Scattered Clouds,0,2012-12-28 14:55:00
9:55 AM,56.1,42.8,61,29.94,10.0,North,9.2,-,N/A,,Clear,360,2012-12-28 15:55:00
10:55 AM,60.4,38.3,44,29.95,10.0,North,10.4,-,N/A,,Clear,350,2012-12-28 16:55:00
11:55 AM,65.3,32.9,30,29.92,10.0,NNW,18.4,25.3,N/A,,Clear,330,2012-12-28 17:55:00
12:55 PM,69.3,29.3,23,29.89,10.0,NW,17.3,21.9,N/A,,Clear,310,2012-12-28 18:55:00
1:55 PM,70.7,24.6,18,29.88,10.0,WNW,19.6,27.6,N/A,,Clear,290,2012-12-28 19:55:00
2:55 PM,68.4,23.9,19,29.90,10.0,NW,16.1,28.8,N/A,,Clear,320,2012-12-28 20:55:00
3:55 PM,64.9,23.5,21,29.94,10.0,NW,21.9,-,N/A,,Clear,320,2012-12-28 21:55:00
4:55 PM,60.6,25.0,26,29.98,10.0,NNW,23.0,-,N/A,,Clear,340,2012-12-28 22:55:00
5:55 PM,54.1,26.1,34,30.02,10.0,North,12.7,-,N/A,,Clear,350,2012-12-28 23:55:00
6:55 PM,48.6,27.9,45,30.07,10.0,North,15.0,-,N/A,,Clear,350,2012-12-29 00:55:00
7:55 PM,45.7,27.7,49,30.11,10.0,North,12.7,-,N/A,,Clear,350,2012-12-29 01:55:00
8:55 PM,43.7,27.3,53,30.14,10.0,North,10.4,-,N/A,,Clear,10,2012-12-29 02:55:00
9:55 PM,42.1,28.0,58,30.16,10.0,NNE,12.7,-,N/A,,Clear,20,2012-12-29 03:55:00
10:55 PM,40.5,27.7,60,30.17,10.0,North,16.1,23.0,N/A,,Clear,10,2012-12-29 04:55:00
11:55 PM,40.6,25.3,54,30.16,10.0,North,18.4,23.0,N/A,,Clear,10,2012-12-29 05:55:00